Weather History for Iron Mountain, MI

Change the Weather History Date:

Wednesday, February 19, 2014

  Actual Average Record
Temperature  
Mean Temperature 28 °F -  
Max Temperature 43 °F 31 °F 52 °F (1981)
Min Temperature 12 °F 10 °F -23 °F (1959)
Degree Days  
Heating Degree Days 38    
Moisture  
Dew Point 16 °F    
Average Humidity 69    
Maximum Humidity 93    
Minimum Humidity 33    
Precipitation  
Precipitation 0.00 in - - ()
Sea Level Pressure  
Sea Level Pressure 29.71 in    
Wind  
Wind Speed 3 mph (WSW)    
Max Wind Speed 15 mph    
Max Gust Speed 23 mph    
Visibility 7 miles    
Events      
Averages and records for this station are not official NWS values.
T = Trace of Precipitation, MM = Missing Value Source: NWS Daily Summary

Daily Weather History Graph

Daily Weather History Graph

Search for Another Location

Airport:

Trip Planner

Search our weather history database for the weather conditions in past years. The results will help you decide how hot, cold, wet, or windy it might be!

Date:

Astronomy

Feb. 19, 2014 Rise Set
Actual Time 6:48 AM CST 5:24 PM CST
Civil Twilight 6:17 AM CST 5:55 PM CST
Nautical Twilight 5:43 AM CST 6:30 PM CST
Astronomical Twilight 5:08 AM CST 7:04 PM CST
Moon 10:35 PM CST (2/19) 8:38 AM CST (2/19)
Length of Visible Light 11h 37m
Length of Day
10h 36m
Waning Gibbous, 79% of the Moon is Illuminated
Feb 19
Waning Gibbous
Feb 22
Last Quarter
Mar 1
New
Mar 8
First Quarter
Mar 16
Full

Hourly Weather History & Observations

Time (CST) Temp. Windchill Dew Point Humidity Pressure Visibility Wind Dir Wind Speed Gust Speed Precip Events Conditions
12:54 AM 19.0 °F - 16.0 °F 88% 29.62 in 4.0 mi Calm Calm - N/A   Clear
1:09 AM 19.4 °F - 15.8 °F 86% 29.57 in 1.8 mi Calm Calm - N/A   Clear
1:21 AM 19.4 °F - 15.8 °F 86% 29.57 in 3.0 mi Calm Calm - N/A   Clear
1:54 AM 17.1 °F - 15.1 °F 92% 29.63 in 4.0 mi Calm Calm - N/A   Clear
2:30 AM 15.8 °F - 12.2 °F 86% 29.58 in 1.8 mi Calm Calm - N/A   Clear
2:54 AM 12.9 °F - 10.0 °F 88% 29.64 in 1.2 mi Calm Calm - N/A   Clear
3:08 AM 15.8 °F - 12.2 °F 86% 29.58 in 0.8 mi Calm Calm - N/A   Mist
3:29 AM 14.0 °F - 12.2 °F 93% 29.58 in 1.5 mi Calm Calm - N/A   Partly Cloudy
3:32 AM 17.6 °F - 15.8 °F 93% 29.58 in 3.0 mi Calm Calm - N/A   Clear
3:54 AM 14.0 °F - 10.9 °F 88% 29.64 in 5.0 mi Calm Calm - N/A   Clear
4:26 AM 17.6 °F - 15.8 °F 93% 29.59 in 1.5 mi Calm Calm - N/A   Clear
4:31 AM 17.6 °F - 15.8 °F 93% 29.60 in 4.0 mi Calm Calm - N/A   Clear
4:54 AM 18.0 °F - 15.1 °F 88% 29.66 in 9.0 mi Calm Calm - N/A   Clear
5:54 AM 21.9 °F 13.4 °F 19.0 °F 89% 29.67 in 10.0 mi WNW 6.9 mph - N/A   Clear
6:54 AM 23.0 °F 13.9 °F 18.0 °F 81% 29.69 in 10.0 mi WNW 8.1 mph - N/A   Clear
7:54 AM 24.1 °F 15.2 °F 18.0 °F 77% 29.71 in 10.0 mi WNW 8.1 mph - N/A   Clear
8:54 AM 28.0 °F 18.6 °F 18.0 °F 66% 29.74 in 10.0 mi West 10.4 mph - N/A   Clear
9:54 AM 32.0 °F 24.8 °F 19.0 °F 59% 29.76 in 10.0 mi West 8.1 mph - N/A   Clear
10:54 AM 37.0 °F 30.4 °F 19.0 °F 48% 29.75 in 10.0 mi West 9.2 mph 16.1 mph N/A   Clear
11:54 AM 39.0 °F 31.4 °F 18.0 °F 43% 29.76 in 10.0 mi WNW 12.7 mph - N/A   Clear
12:54 PM 41.0 °F 33.1 °F 16.0 °F 36% 29.76 in 10.0 mi West 15.0 mph 23.0 mph N/A   Clear
1:54 PM 42.1 °F 36.6 °F 17.1 °F 37% 29.75 in 10.0 mi WSW 9.2 mph - N/A   Clear
2:54 PM 43.0 °F 36.4 °F 16.0 °F 34% 29.78 in 10.0 mi WSW 12.7 mph 17.3 mph N/A   Clear
3:54 PM 42.1 °F 37.1 °F 16.0 °F 35% 29.79 in 10.0 mi WSW 8.1 mph 19.6 mph N/A   Clear
4:54 PM 41.0 °F 34.7 °F 14.0 °F 33% 29.81 in 10.0 mi WSW 10.4 mph - N/A   Clear
5:54 PM 37.0 °F 33.3 °F 14.0 °F 39% 29.84 in 10.0 mi SW 4.6 mph - N/A   Clear
6:54 PM 36.0 °F 29.6 °F 16.0 °F 44% 29.86 in 10.0 mi SW 8.1 mph - N/A   Clear
7:54 PM 34.0 °F 28.8 °F 18.0 °F 52% 29.86 in 10.0 mi SW 5.8 mph - N/A   Clear
8:54 PM 28.0 °F - 17.1 °F 63% 29.86 in 10.0 mi Calm Calm - N/A   Clear
9:54 PM 25.0 °F 20.7 °F 17.1 °F 72% 29.87 in 10.0 mi SSE 3.5 mph - N/A   Clear
10:54 PM 25.0 °F 20.7 °F 18.0 °F 75% 29.87 in 10.0 mi SE 3.5 mph - N/A   Clear
11:54 PM 25.0 °F - 19.0 °F 78% 29.87 in 10.0 mi Calm Calm - N/A   Mostly Cloudy